FW9881 Weather Reports


time (UTC)temp
F
wind
direction
speed
knots
gust
knots
rain 1hr
in
rain 24hr
in
rain mn
in
humidity
%
barometer
mb
20260504050137 34 157 0.0 0.0 0.00 0.01 0.00 86 1012.7
20260504045037 33 157 0.0 0.0 0.00 0.01 0.00 86 1012.7
20260504044038 32 157 0.0 0.0 0.00 0.01 0.00 85 1012.6
20260504043938 32 157 0.0 0.0 0.00 0.01 0.00 85 1012.7
20260504042940 32 157 0.0 0.0 0.00 0.01 0.00 85 1012.7
20260504041939 32 157 0.0 0.0 0.00 0.01 0.00 85 1012.7
20260504040939 32 22 0.0 0.0 0.00 0.01 0.00 83 1012.7
20260504040031 32 22 0.0 0.0 0.00 0.01 0.00 83 1012.6
20260504035024 33 22 0.0 0.0 0.00 0.01 0.01 82 1012.5
20260504034925 33 22 0.0 0.0 0.00 0.01 0.01 83 1012.5
20260504033925 33 22 0.0 0.0 0.00 0.01 0.01 83 1012.5
20260504033024 33 22 0.0 0.0 0.00 0.01 0.01 82 1012.4
20260504032026 33 22 0.0 0.0 0.00 0.01 0.01 81 1012.4
20260504030223 33 22 0.0 0.0 0.00 0.01 0.01 81 1012.3
20260504030126 33 22 0.0 0.0 0.00 0.01 0.01 80 1012.5
20260504025124 34 22 0.0 0.0 0.00 0.01 0.01 81 1012.3
20260504024127 34 22 0.0 0.0 0.00 0.01 0.01 80 1012.2
20260504023224 35 22 0.0 0.0 0.00 0.01 0.01 79 1012.4
20260504022241 35 22 0.0 0.0 0.00 0.01 0.01 78 1012.5
20260504022126 35 22 0.0 0.0 0.00 0.01 0.01 77 1012.4
20260504021023 34 22 0.0 0.0 0.00 0.01 0.01 77 1012.4
20260504020026 35 22 0.0 0.0 0.00 0.01 0.01 76 1012.3
20260504015024 35 22 0.0 0.0 0.00 0.01 0.01 75 1012.4
20260504012124 37 22 0.0 0.0 0.00 0.01 0.01 69 1012.1
20260504011124 38 22 0.0 0.0 0.00 0.01 0.01 67 1011.9
20260504011025 38 22 0.0 0.0 0.00 0.01 0.01 67 1012.0
20260504010123 39 22 0.0 0.0 0.00 0.01 0.01 65 1011.9
20260504010043 39 22 0.0 0.0 0.00 0.01 0.01 64 1011.8
20260504005024 40 22 0.0 0.0 0.00 0.01 0.01 62 1011.7
20260504004124 40 22 0.0 0.0 0.00 0.01 0.01 58 1011.6
20260504003140 41 22 0.0 0.0 0.00 0.01 0.01 57 1011.6
20260504002226 42 22 0.0 0.0 0.00 0.01 0.01 53 1011.5
20260504001226 44 22 0.0 0.9 0.00 0.01 0.01 50 1011.3
20260504000226 45 22 0.0 0.0 0.00 0.01 0.01 48 1011.2
20260503235224 46 22 0.9 0.9 0.00 0.01 0.01 46 1011.2
20260503234324 47 22 0.0 0.0 0.00 0.01 0.01 44 1011.2
20260503231423 48 336 2.6 4.3 0.00 0.01 0.01 43 1010.9
20260503230423 48 346 3.5 6.1 0.00 0.01 0.01 43 1010.8
20260503225425 48 336 2.6 4.3 0.00 0.01 0.01 42 1010.6
20260503224424 48 338 2.6 7.0 0.00 0.01 0.01 43 1010.8
20260503223426 48 314 2.6 3.5 0.00 0.01 0.01 41 1010.6
20260503222425 49 295 2.6 6.1 0.00 0.01 0.01 42 1010.7
20260503221523 48 302 5.2 8.7 0.00 0.01 0.01 41 1010.7
20260503215624 49 315 0.9 2.6 0.00 0.01 0.01 41 1010.6
20260503214525 49 336 3.5 7.8 0.00 0.01 0.01 41 1010.5
20260503213624 49 231 1.7 3.5 0.00 0.02 0.01 40 1010.4
20260503212723 48 326 5.2 8.7 0.00 0.04 0.01 40 1010.5
20260503210725 50 313 0.9 5.2 0.00 0.04 0.01 40 1010.1
20260503204726 48 316 7.8 15.6 0.00 0.04 0.01 41 1010.1
20260503203726 48 298 3.5 7.0 0.00 0.04 0.01 40 1010.1
20260503202742 49 329 5.2 7.8 0.00 0.04 0.01 38 1009.9
20260503201824 49 272 4.3 7.0 0.00 0.04 0.01 40 1009.9
20260503201739 49 310 2.6 5.2 0.00 0.04 0.01 40 1010.1
20260503195743 49 316 5.2 7.8 0.00 0.04 0.01 39 1009.9
20260503194825 49 318 7.0 13.9 0.00 0.04 0.01 40 1009.7
20260503194724 49 325 7.8 13.0 0.00 0.04 0.01 40 1009.7
20260503192725 49 360 7.8 13.0 0.00 0.04 0.01 40 1009.7
20260503191725 49 278 7.8 15.6 0.00 0.04 0.01 41 1009.7
20260503190824 49 335 6.1 11.3 0.00 0.04 0.01 39 1009.7
20260503190724 49 318 3.5 6.1 0.00 0.04 0.01 40 1009.9
20260503185723 49 342 3.5 9.6 0.00 0.04 0.01 40 1009.5
20260503184725 49 347 4.3 8.7 0.00 0.04 0.01 39 1009.4
20260503182823 49 340 1.7 3.5 0.00 0.04 0.01 40 1009.6
20260503182725 49 347 2.6 7.0 0.00 0.04 0.01 40 1009.4
20260503181723 49 348 4.3 7.8 0.00 0.04 0.01 41 1009.7
20260503181623 49 5 3.5 7.0 0.00 0.04 0.01 41 1009.7
20260503180623 49 283 3.5 8.7 0.00 0.04 0.01 42 1009.8
20260503180524 49 320 3.5 6.1 0.00 0.04 0.01 41 1009.7
20260503175524 50 341 4.3 10.4 0.00 0.04 0.01 41 1009.6
20260503174526 50 346 4.3 7.0 0.00 0.04 0.01 42 1009.3
20260503173524 49 336 6.1 13.9 0.00 0.04 0.01 44 1009.3
20260503171526 51 286 7.8 12.2 0.00 0.04 0.01 45 1009.4
20260503150825 46 351 6.1 12.2 0.00 0.09 0.01 61 1009.7
20260503131126 41 342 3.5 6.1 0.00 0.09 0.01 80 1010.6
20260503130223 40 348 2.6 4.3 0.00 0.09 0.01 80 1010.6
20260503090225 38 316 3.5 5.2 0.00 0.16 0.00 89 1010.7
20260503080224 38 337 1.7 3.5 0.00 0.23 0.00 89 1011.5
20260503072224 38 343 1.7 2.6 0.00 0.24 0.00 90 1011.6
20260503071224 38 338 1.7 1.7 0.00 0.25 0.00 89 1011.7
20260503070225 38 336 1.7 2.6 0.00 0.25 0.00 91 1011.9